Location: Franklinton
(36.1018°N, 78.4581°W)
Time: 10:11:30
(UTC-05:00)

ISS - Visible Passes

Search period start: 19 February 2019 00:00
Search period end: 01 March 2019 00:00
Orbit: 403 x 411 km, 51.6° (Epoch: 20 February)

Date Brightness Start Highest point End Pass type
(mag) Time Alt. Az. Time Alt. Az. Time Alt. Az.
20 Feb -0.7 06:05:40 10° SSE 06:07:21 13° SE 06:09:03 10° E visible
22 Feb -2.3 05:57:40 10° SSW 06:00:42 37° SE 06:03:45 10° ENE visible
23 Feb -1.2 05:07:37 13° SSE 05:09:23 18° SE 05:11:43 10° E visible
24 Feb -3.9 05:51:49 17° WSW 05:54:10 71° NW 05:57:26 10° NE visible
25 Feb -3.0 05:03:01 50° ESE 05:03:01 50° ESE 05:05:54 10° ENE visible
26 Feb -0.2 04:14:01 10° ENE 04:14:01 10° ENE 04:14:03 10° ENE visible
26 Feb -2.7 05:46:44 23° WNW 05:47:45 27° NW 05:50:38 10° NNE visible
27 Feb -2.1 04:57:34 28° NNE 04:57:34 28° NNE 04:59:20 10° NE visible
28 Feb -1.7 05:40:59 14° NW 05:41:28 14° NNW 05:43:23 10° N visible
